Weather History for Sisseton, SD

Change the Weather History Date:

Thursday, November 8, 2012

  Actual Average Record
Temperature  
Mean Temperature 41 °F 35 °F  
Max Temperature 50 °F 45 °F 77 °F (2006)
Min Temperature 31 °F 26 °F 1 °F (2003)
Degree Days  
Heating Degree Days 24 30  
Month to date heating degree days 228 224  
Since 1 July heating degree days 1101 1051  
Cooling Degree Days 0 0  
Month to date cooling degree days 0 0  
Year to date cooling degree days 712 527  
Moisture  
Dew Point 33 °F    
Average Humidity 81    
Maximum Humidity 92    
Minimum Humidity 70    
Precipitation  
Precipitation 0.00 in 0.03 in 1.10 in (1970)
Month to date precipitation 0.11 0.23  
Year to date precipitation 16.61 21.59  
Snow  
Snow 0.00 in - - ()
Month to date snowfall T  
Since 1 July snowfall T  
Snow Depth 0.00 in    
Sea Level Pressure  
Sea Level Pressure 29.97 in    
Wind  
Wind Speed 13 mph (NE)    
Max Wind Speed 26 mph    
Max Gust Speed 32 mph    
T = Trace of Precipitation, MM = Missing Value Source: NWS Daily Summary

Daily Weather History Graph

Daily Weather History Graph

Search for Another Location

Airport:

Trip Planner

Search our weather history database for the weather conditions in past years. The results will help you decide how hot, cold, wet, or windy it might be!

Date:

Astronomy

Nov. 08, 2012 Rise Set
Actual Time 7:18 AM CST 5:04 PM CST
Civil Twilight 6:46 AM CST 5:36 PM CST
Nautical Twilight 6:11 AM CST 6:11 PM CST
Astronomical Twilight 5:36 AM CST 6:46 PM CST
Moon 12:57 AM CST (11/8) 2:01 PM CST (11/8)
Length of Visible Light 10h 49m
Length of Day
9h 46m
Waning Crescent, 32% of the Moon is Illuminated
Nov 8
Waning Crescent
Nov 13
New
Nov 20
First Quarter
Nov 28
Full
Dec 6
Last Quarter

Hourly Weather History & Observations

Time (CST) Temp. Windchill Dew Point Humidity Pressure Visibility Wind Dir Wind Speed Gust Speed Precip Events Conditions
12:56 AM 39.0 °F 31.4 °F 32.0 °F 76% 29.82 in - SSE 12.7 mph - N/A   Unknown
1:56 AM 37.0 °F 29.3 °F 30.9 °F 79% 29.82 in - SSE 11.5 mph - N/A   Unknown
2:56 AM 36.0 °F 26.7 °F 30.9 °F 82% 29.81 in - SSE 15.0 mph - N/A   Unknown
3:56 AM 35.1 °F 29.3 °F 30.0 °F 82% 29.83 in - SSE 6.9 mph - N/A   Unknown
4:56 AM 34.0 °F 28.0 °F 30.0 °F 85% 29.83 in - South 6.9 mph - N/A   Unknown
5:56 AM 32.0 °F 26.4 °F 28.9 °F 88% 29.86 in - SSE 5.8 mph - N/A   Unknown
6:56 AM 32.0 °F 28.7 °F 30.0 °F 92% 29.88 in - SSE 3.5 mph - N/A   Unknown
7:56 AM 34.0 °F - 30.9 °F 89% 29.90 in - Calm Calm - N/A   Unknown
8:56 AM 37.9 °F - 34.0 °F 86% 29.93 in - Calm Calm - N/A   Unknown
9:56 AM 46.0 °F 38.8 °F 37.0 °F 71% 29.94 in - North 18.4 mph - N/A   Unknown
10:56 AM 46.9 °F - 37.9 °F 71% 29.96 in - North 18.4 mph 25.3 mph N/A   Unknown
11:56 AM 46.9 °F - 37.9 °F 71% 29.97 in - North 23.0 mph 31.1 mph N/A   Unknown
12:56 PM 44.1 °F 35.2 °F 36.0 °F 73% 29.99 in - North 23.0 mph 29.9 mph N/A   Unknown
1:56 PM 42.1 °F 32.6 °F 36.0 °F 79% 30.01 in - North 23.0 mph - N/A   Unknown
2:56 PM 39.9 °F 30.8 °F 35.1 °F 83% 30.04 in - NNE 18.4 mph - N/A   Unknown
3:56 PM 41.0 °F 32.8 °F 35.1 °F 79% 30.06 in - NNE 16.1 mph - N/A   Unknown
4:56 PM 39.9 °F 30.5 °F 34.0 °F 79% 30.07 in - NNE 19.6 mph 27.6 mph N/A   Unknown
5:56 PM 39.0 °F 30.3 °F 33.1 °F 79% 30.09 in - NNE 16.1 mph - N/A   Unknown
6:56 PM 37.9 °F 28.9 °F 33.1 °F 83% 30.10 in - NNE 16.1 mph - N/A   Unknown
7:56 PM 37.0 °F 28.9 °F 33.1 °F 86% 30.11 in - North 12.7 mph - N/A   Unknown
8:56 PM 37.0 °F 29.3 °F 33.1 °F 86% 30.10 in - NNE 11.5 mph - N/A   Unknown
9:56 PM 37.9 °F 30.0 °F 33.1 °F 83% 30.08 in - NNE 12.7 mph - N/A   Unknown
10:56 PM 36.0 °F 26.7 °F 32.0 °F 86% 30.09 in - NNE 15.0 mph - N/A   Unknown
11:56 PM 36.0 °F 28.0 °F 30.9 °F 82% 30.10 in - NNE 11.5 mph - N/A   Unknown